Weather History for Middlesboro, KY

Change the Weather History Date:

Friday, April 26, 2013

  Actual Average (KLOZ) Record (KLOZ)
Temperature  
Mean Temperature 50 °F 60 °F  
Max Temperature 67 °F 72 °F 87 °F (1984)
Min Temperature 33 °F 48 °F 33 °F (1968)
Degree Days  
Heating Degree Days 15 6  
Month to date heating degree days 252  
Since 1 July heating degree days 4077  
Cooling Degree Days 0 1  
Month to date cooling degree days 18  
Year to date cooling degree days 21  
Moisture  
Dew Point 36 °F    
Average Humidity 60    
Maximum Humidity 97    
Minimum Humidity 23    
Precipitation  
Precipitation 0.00 in 0.14 in 1.96 in (1967)
Month to date precipitation 3.49  
Year to date precipitation 14.79  
Sea Level Pressure  
Sea Level Pressure 30.38 in    
Wind  
Wind Speed 1 mph (NW)    
Max Wind Speed 6 mph    
Max Gust Speed -    
Visibility 10 miles    
Events Rain    
T = Trace of Precipitation, MM = Missing Value Source: NWS Daily Summary

Daily Weather History Graph

Daily Weather History Graph

Search for Another Location

Airport:

Trip Planner

Search our weather history database for the weather conditions in past years. The results will help you decide how hot, cold, wet, or windy it might be!

Date:

Astronomy

Apr. 26, 2013 Rise Set
Actual Time 5:46 AM CDT 7:19 PM CDT
Civil Twilight 5:19 AM CDT 7:46 PM CDT
Nautical Twilight 4:46 AM CDT 8:19 PM CDT
Astronomical Twilight 4:12 AM CDT 8:54 PM CDT
Moon 8:38 PM CDT (4/26) 6:14 AM CDT (4/26)
Length of Visible Light 14h 27m
Length of Day
13h 32m
Full, 99% of the Moon is Illuminated
Apr 26
Full
May 2
Last Quarter
May 9
New
May 17
First Quarter
May 24
Full

Hourly Weather History & Observations

Time (CDT) Temp. Dew Point Humidity Pressure Visibility Wind Dir Wind Speed Gust Speed Precip Events Conditions
12:15 AM 39.7 °F 36.1 °F 87% 30.39 in 10.0 mi Calm Calm - N/A   Clear
12:35 AM 38.8 °F 35.6 °F 88% 30.39 in 10.0 mi Calm Calm - N/A   Clear
12:55 AM 38.8 °F 36.0 °F 89% 30.39 in 10.0 mi Calm Calm - N/A   Clear
1:15 AM 38.3 °F 35.6 °F 90% 30.39 in 10.0 mi Calm Calm - N/A   Clear
1:35 AM 37.4 °F 35.1 °F 91% 30.39 in 10.0 mi Calm Calm - N/A   Clear
2:15 AM 36.9 °F 34.9 °F 93% 30.39 in 10.0 mi Calm Calm - N/A   Clear
2:35 AM 36.9 °F 34.9 °F 93% 30.39 in 10.0 mi Calm Calm - N/A   Clear
2:55 AM 36.3 °F 34.5 °F 93% 30.39 in 10.0 mi Calm Calm - N/A   Clear
3:15 AM 35.8 °F 34.5 °F 95% 30.39 in 10.0 mi Calm Calm - N/A   Clear
3:35 AM 35.4 °F 34.0 °F 94% 30.39 in 10.0 mi Calm Calm - N/A   Clear
3:55 AM 35.1 °F 34.0 °F 96% 30.39 in 10.0 mi Calm Calm - N/A   Clear
4:15 AM 34.3 °F 33.3 °F 96% 30.40 in 10.0 mi Calm Calm - N/A   Clear
4:35 AM 34.3 °F 33.4 °F 97% 30.41 in 10.0 mi Calm Calm - N/A   Clear
4:55 AM 34.2 °F 33.3 °F 97% 30.41 in 10.0 mi Calm Calm - N/A   Clear
5:15 AM 34.0 °F 32.9 °F 96% 30.41 in 10.0 mi Calm Calm - N/A   Clear
5:35 AM 33.6 °F 32.4 °F 95% 30.42 in 7.0 mi Calm Calm - N/A   Clear
5:55 AM 33.4 °F 32.2 °F 95% 30.43 in 10.0 mi Calm Calm - N/A   Clear
6:15 AM 33.8 °F 32.5 °F 95% 30.44 in 10.0 mi Calm Calm - N/A   Clear
6:35 AM 34.0 °F 32.9 °F 96% 30.44 in 10.0 mi Calm Calm - N/A   Clear
6:55 AM 35.1 °F 34.0 °F 96% 30.45 in 10.0 mi Calm Calm - N/A   Clear
7:15 AM 37.4 °F 34.7 °F 90% 30.45 in 10.0 mi Calm Calm - N/A   Clear
7:35 AM 37.9 °F 35.2 °F 90% 30.45 in 10.0 mi Calm Calm - N/A   Clear
7:55 AM 40.6 °F 36.7 °F 86% 30.44 in 10.0 mi Calm Calm - N/A   Clear
8:15 AM 41.7 °F 36.7 °F 82% 30.44 in 10.0 mi Calm Calm - N/A   Clear
8:35 AM 44.1 °F 35.6 °F 72% 30.44 in 10.0 mi Calm Calm - N/A   Clear
8:55 AM 47.3 °F 37.4 °F 68% 30.42 in 10.0 mi ENE 3.5 mph - N/A   Clear
9:15 AM 49.3 °F 36.9 °F 62% 30.41 in 10.0 mi Calm Calm - N/A   Clear
9:35 AM 51.8 °F 37.0 °F 57% 30.41 in 10.0 mi Calm Calm - N/A   Clear
9:55 AM 54.1 °F 37.0 °F 52% 30.42 in 10.0 mi Calm Calm - N/A   Clear
10:15 AM 57.6 °F 37.8 °F 48% 30.42 in 10.0 mi Calm Calm - N/A   Clear
10:35 AM 59.0 °F 35.2 °F 41% 30.42 in 10.0 mi Calm Calm - N/A   Clear
10:55 AM 60.6 °F 37.2 °F 42% 30.42 in 10.0 mi North 4.6 mph - N/A   Clear
11:15 AM 60.1 °F 34.7 °F 39% 30.41 in 10.0 mi Calm Calm - N/A   Clear
11:35 AM 61.9 °F 36.9 °F 39% 30.41 in 10.0 mi East 3.5 mph - N/A   Clear
11:55 AM 62.2 °F 35.1 °F 36% 30.41 in 10.0 mi Calm Calm - N/A   Clear
12:15 PM 63.0 °F 33.6 °F 33% 30.40 in 10.0 mi NNE 4.6 mph - N/A   Clear
12:35 PM 64.2 °F 35.2 °F 34% 30.40 in 10.0 mi North 3.5 mph - N/A   Clear
12:55 PM 63.3 °F 26.6 °F 25% 30.40 in 10.0 mi Calm Calm - N/A   Clear
1:15 PM 65.3 °F 26.4 °F 23% 30.39 in 10.0 mi ESE 3.5 mph - N/A   Clear
1:35 PM 65.5 °F 31.8 °F 28% 30.39 in 10.0 mi Calm Calm - N/A   Clear
1:55 PM 65.5 °F 32.5 °F 29% 30.38 in 10.0 mi Calm Calm - N/A   Clear
2:15 PM 65.7 °F 31.5 °F 28% 30.37 in 10.0 mi Calm Calm - N/A   Clear
2:35 PM 65.8 °F 32.4 °F 29% 30.36 in 10.0 mi South 3.5 mph - N/A   Clear
2:55 PM 65.8 °F 32.0 °F 28% 30.34 in 10.0 mi Calm Calm - N/A   Clear
3:15 PM 67.1 °F 33.4 °F 29% 30.32 in 10.0 mi SSE 3.5 mph - N/A   Clear
3:35 PM 66.2 °F 32.9 °F 29% 30.31 in 10.0 mi Calm Calm - N/A   Mostly Cloudy
3:55 PM 66.4 °F 32.2 °F 28% 30.32 in 10.0 mi Calm Calm - N/A   Mostly Cloudy
4:15 PM 65.8 °F 30.7 °F 27% 30.32 in 10.0 mi Calm Calm - N/A   Mostly Cloudy
4:35 PM 64.9 °F 33.8 °F 31% 30.32 in 10.0 mi Calm Calm - N/A   Overcast
4:55 PM 64.9 °F 35.4 °F 33% 30.33 in 10.0 mi Calm Calm - N/A   Overcast
5:15 PM 64.6 °F 38.3 °F 38% 30.34 in 10.0 mi North 3.5 mph - N/A   Overcast
5:35 PM 64.6 °F 35.2 °F 34% 30.36 in 10.0 mi WNW 4.6 mph - N/A   Overcast
5:55 PM 63.9 °F 37.8 °F 38% 30.37 in 10.0 mi WNW 5.8 mph - N/A   Overcast
6:15 PM 63.0 °F 37.6 °F 39% 30.38 in 10.0 mi WNW 4.6 mph - N/A   Overcast
6:35 PM 62.6 °F 36.0 °F 37% 30.38 in 10.0 mi WSW 3.5 mph - N/A   Overcast
6:55 PM 62.6 °F 35.4 °F 36% 30.38 in 10.0 mi WSW 3.5 mph - N/A   Overcast
7:15 PM 62.1 °F 36.0 °F 38% 30.36 in 10.0 mi WSW 5.8 mph - N/A   Overcast
7:35 PM 61.7 °F 35.6 °F 38% 30.36 in 10.0 mi West 4.6 mph - N/A   Overcast
7:55 PM 60.8 °F 37.0 °F 41% 30.34 in 10.0 mi Calm Calm - N/A   Overcast
8:15 PM 59.9 °F 38.3 °F 45% 30.33 in 10.0 mi Calm Calm - N/A   Overcast
8:35 PM 58.6 °F 39.2 °F 48% 30.33 in 10.0 mi Calm Calm - N/A   Mostly Cloudy
8:55 PM 57.2 °F 41.0 °F 55% 30.36 in 10.0 mi Calm Calm - N/A   Overcast
9:15 PM 56.8 °F 40.8 °F 55% 30.37 in 10.0 mi Calm Calm - N/A   Overcast
9:35 PM 57.0 °F 41.4 °F 56% 30.36 in 10.0 mi Calm Calm - N/A   Overcast
9:55 PM 56.5 °F 41.4 °F 57% 30.37 in 10.0 mi Calm Calm - N/A   Overcast
10:15 PM 56.5 °F 40.8 °F 56% 30.36 in 10.0 mi Calm Calm - N/A   Overcast
10:35 PM 55.0 °F 44.6 °F 68% 30.36 in 10.0 mi Calm Calm - N/A Rain Light Rain
10:55 PM 54.5 °F 46.4 °F 74% 30.36 in 10.0 mi Calm Calm - N/A   Overcast
11:15 PM 53.8 °F 46.8 °F 77% 30.34 in 10.0 mi Calm Calm - N/A   Overcast
11:35 PM 54.0 °F 45.1 °F 72% 30.35 in 10.0 mi Calm Calm - N/A   Overcast
11:55 PM 53.6 °F 45.3 °F 74% 30.35 in 10.0 mi NW 3.5 mph - N/A   Overcast